Vertical_Velocity
-0 -0 1 0 -0 -1 -1 -0 -0 -0 -0 0 -0 -0 -0 -1 -1 0 -0 -2 -1 0 0 -1 0 0 0 -0 -1 -2 -1 -6 1 1 2 -4 -4 -1 0 -1 -1 -2 -0 -1 0
-1 -1 -1 -0 0 -0 -1 0 1 -0 -0 -0 -0 0 -1 -2 -1 -1 -1 -3 -1 -0 -1 -0 1 1 -2 -0 -1 -1 -2 0 -5 -3 1 5 -2 -2 -2 -1 -1 -3 -1 0 0
-0 0 -0 -0 1 0 0 -0 -1 -0 -0 0 -0 -0 -1 -0 0 -2 -1 -3 -3 0 -1 -0 0 -1 -1 -1 -1 -2 -1 -1 -3 -2 -2 1 -0 -5 -2 -1 -1 -2 -1 2 -1
-0 0 -0 -1 -1 -0 0 -0 -0 -1 -0 -0 -0 -0 -1 0 0 1 -1 -2 -2 -1 -1 2 -3 -2 -0 -4 -1 -2 -0 -1 0 -2 -1 -1 -3 -5 -1 -1 -4 -1 -1 1 -0
-1 -0 -0 -0 -1 -0 -0 -0 -1 -0 -0 1 0 -0 -0 0 0 -1 -1 -1 -1 0 -1 0 -4 -2 -2 -2 0 1 0 -0 -1 -2 -0 3 -1 -2 1 1 -2 -1 -2 1 0
-0 -0 -0 0 -0 -0 -0 -0 -1 -1 -1 -1 0 0 0 -1 -1 -1 -1 -0 0 -1 3 -3 -3 -2 -1 -1 2 1 2 1 -2 -4 -1 1 -1 -3 1 -0 -1 -2 -1 1 -1
-1 -1 -1 0 -0 -0 0 -0 -1 -0 -0 -1 -0 0 -0 1 0 -0 -2 -2 -1 -1 5 -3 -2 -1 -1 -2 0 -0 -2 -2 -5 -6 -3 0 11 4 0 -1 -2 -1 -2 3 0
-0 0 -0 0 0 0 0 -0 -1 0 -0 -1 -0 0 -1 0 0 1 -1 -1 0 -2 2 -1 0 0 -3 1 1 -4 -0 0 2 -2 -4 3 20 -0 1 -1 -1 -1 -2 1 -1
-1 -0 -0 0 -0 -1 -0 -0 -1 -0 -0 -0 0 -2 -1 1 0 -0 -0 -0 -0 1 -1 1 0 -1 -2 1 3 -3 -2 -1 0 -1 4 -1 4 -1 -2 -2 1 -1 -1 -1 1
-0 -0 -0 -0 0 -1 -1 -1 -1 -0 -0 -0 -1 -0 -1 -2 1 -0 -1 0 1 1 -2 0 -1 -1 -1 2 3 1 1 -2 2 0 -2 1 1 3 -4 1 1 1 -2 -1 -2
-0 -1 -1 -0 -1 -0 2 1 -1 -1 -1 -1 -0 -1 -1 -2 -1 0 -1 0 1 -2 -1 -0 1 2 -1 1 2 1 0 1 -2 1 1 -0 1 0 2 -0 0 -0 -0 0 -1
-0 0 -0 1 0 1 -0 -1 -0 1 -1 -1 -1 -1 -0 -0 -0 2 -0 1 1 -3 -1 0 2 -2 -3 -2 0 -1 -2 0 -2 -0 2 -1 2 2 2 0 5 -0 -3 -1 -2
1 1 0 0 1 1 0 -2 -1 1 -0 -1 -1 -0 0 -1 -1 -1 -2 1 1 -2 -1 -2 -4 -1 -1 -0 1 0 1 -4 -1 2 4 3 1 2 -0 2 -3 2 2 2 -1
1 1 -0 0 2 1 -1 -2 -0 -1 1 -1 -1 -2 -1 -1 -1 -2 -2 1 2 -1 -1 -2 -3 -1 3 1 2 1 -3 -1 -0 -0 -1 3 2 1 1 -1 -2 -0 -3 0 2
0 0 -1 2 1 1 -1 -1 -0 -1 0 -1 -1 -2 -2 -2 -1 1 -0 1 -1 1 0 4 -1 -0 2 1 1 -5 -1 -2 -2 -2 1 2 3 -4 2 4 1 -0 2 0 1
-0 -1 -0 2 0 1 1 -1 0 -1 -1 -3 0 -1 -1 -1 -2 -1 -1 -2 -3 0 -0 -0 -1 2 4 -0 1 0 -1 0 1 -0 1 0 2 2 -2 -0 0 1 -0 -1 -0
-0 0 1 0 1 1 -0 -1 -1 0 2 1 -1 0 1 -2 -2 -1 -1 -1 -1 -0 1 -1 0 -3 1 -0 -1 2 1 0 -1 -0 -0 -1 1 -0 0 -2 1 -0 -1 -1 1
-0 1 1 0 -0 1 1 0 0 1 0 1 0 0 1 3 0 -2 -1 -1 -2 -1 0 -1 1 0 2 1 2 -1 -0 2 -0 -1 -1 -2 1 0 1 -1 -4 -1 2 -1 -1
-0 0 1 -1 1 1 0 2 -1 1 -0 2 2 1 0 1 4 -0 0 -1 -1 -2 -3 -1 -1 1 3 3 -1 0 -2 2 -1 -3 -3 -0 -1 1 1 -1 -3 -3 2 1 -1
0 1 1 -0 -1 0 1 -0 -3 -3 3 2 4 4 1 -0 1 2 1 1 1 2 -2 -2 -3 -6 -3 -0 2 -2 -0 -0 -2 -4 1 1 2 -0 -2 -1 -2 -4 -3 -2 1
0 0 1 -0 -1 0 1 2 -2 -1 3 -1 -2 2 4 -1 2 0 5 10 -1 -2 -0 4 -1 -0 -3 -6 8 3 -1 -1 -1 -2 -2 -1 1 -2 1 1 -5 -5 -3 -4 -4
0 1 1 1 1 1 1 0 1 1 1 0 -2 2 1 1 4 1 1 5 4 7 5 2 -3 2 2 1 -5 -0 0 2 1 -2 -6 -2 0 4 -1 -0 2 -3 -4 -3 -1
1 1 1 0 1 0 -0 2 0 -0 -1 1 1 3 2 0 2 2 -1 1 1 1 -4 0 -4 -6 5 -1 -3 -7 2 2 0 1 -9 -2 1 -2 2 -4 -0 2 1 1 -1
-1 1 -2 3 -0 2 0 3 0 0 -1 0 2 0 2 1 2 1 5 4 6 4 5 0 -3 -3 -6 5 23 -0 1 4 2 -2 5 -13 2 0 2 -2 -1 1 2 1 -1
-0 1 1 3 5 3 -0 1 1 -5 1 -1 3 1 2 -2 0 1 3 4 6 5 7 1 -0 -1 -2 -2 -1 1 -2 0 -0 3 0 -0 -5 2 1 2 -6 2 -3 1 -1
-1 -3 1 -0 1 2 3 6 6 2 -3 0 -1 1 0 3 1 -0 1 -0 1 1 3 3 0 -2 1 2 -5 -4 2 3 -6 -6 -3 2 -12 4 1 4 -4 -3 2 -2 3
-2 -3 -3 -2 -2 -2 -3 -2 0 8 -3 -1 2 1 -2 1 3 2 1 6 1 2 3 -0 -0 1 -1 -1 -0 -6 -1 -3 4 0 1 -4 5 -7 -1 1 0 1 -0 -1 -1
Height
5879 5879 5878 5877 5876 5875 5875 5875 5874 5874 5873 5873 5873 5873 5873 5873 5873 5873 5872 5872 5873 5874 5875 5876 5877 5876 5876 5876 5876 5876 5876 5876 5877 5876 5877 5878 5874 5873 5872 5872 5871 5871 5871 5871 5872
5881 5880 5879 5878 5877 5876 5876 5875 5875 5874 5874 5873 5873 5872 5872 5872 5873 5873 5873 5871 5872 5874 5875 5876 5876 5876 5876 5875 5875 5875 5874 5873 5873 5873 5876 5875 5874 5873 5870 5872 5871 5870 5871 5871 5871
5882 5881 5880 5879 5878 5877 5876 5875 5875 5874 5873 5872 5871 5871 5871 5871 5872 5872 5871 5870 5872 5874 5875 5875 5875 5875 5875 5874 5874 5874 5873 5872 5871 5871 5871 5874 5873 5872 5870 5872 5870 5869 5871 5871 5870
5883 5882 5880 5879 5878 5877 5876 5875 5874 5873 5872 5871 5870 5869 5869 5870 5872 5870 5870 5869 5871 5873 5874 5874 5873 5874 5875 5874 5874 5873 5871 5868 5870 5868 5869 5870 5872 5871 5871 5871 5871 5869 5871 5870 5871
5882 5880 5878 5877 5876 5875 5874 5873 5873 5872 5871 5870 5869 5868 5868 5869 5870 5869 5869 5870 5870 5872 5873 5871 5872 5872 5873 5873 5872 5872 5870 5868 5867 5868 5867 5869 5870 5872 5872 5871 5870 5870 5871 5871 5871
5880 5876 5875 5874 5874 5873 5873 5872 5872 5871 5870 5869 5868 5867 5867 5869 5869 5868 5869 5870 5870 5871 5872 5870 5871 5871 5871 5872 5873 5871 5868 5866 5865 5865 5868 5869 5869 5871 5872 5871 5871 5871 5872 5872 5872
5877 5874 5873 5872 5872 5872 5872 5871 5871 5870 5869 5868 5867 5867 5867 5868 5868 5867 5868 5869 5870 5870 5870 5869 5869 5870 5870 5871 5871 5870 5867 5864 5862 5865 5866 5867 5868 5870 5871 5871 5871 5872 5874 5872 5872
5877 5874 5872 5872 5871 5871 5871 5871 5870 5869 5869 5868 5867 5867 5867 5867 5867 5867 5867 5869 5869 5868 5868 5868 5869 5869 5869 5871 5870 5868 5867 5865 5864 5865 5863 5864 5863 5869 5871 5870 5870 5873 5874 5873 5873
5876 5874 5872 5872 5871 5871 5871 5870 5870 5869 5868 5868 5867 5867 5867 5867 5867 5866 5866 5867 5867 5866 5866 5867 5868 5868 5870 5872 5871 5868 5867 5866 5864 5864 5863 5864 5865 5868 5869 5870 5870 5871 5872 5873 5875
5875 5873 5872 5871 5871 5871 5871 5870 5869 5868 5867 5867 5866 5867 5866 5866 5866 5866 5866 5866 5865 5866 5865 5867 5868 5868 5869 5871 5870 5869 5867 5865 5866 5866 5865 5865 5865 5867 5867 5869 5870 5871 5871 5874 5874
5873 5872 5871 5871 5871 5871 5870 5869 5870 5868 5866 5866 5865 5865 5864 5865 5865 5865 5865 5864 5864 5865 5865 5866 5868 5868 5869 5870 5870 5869 5868 5867 5865 5866 5866 5867 5866 5866 5867 5868 5869 5870 5872 5873 5874
5872 5871 5870 5870 5871 5870 5868 5867 5866 5867 5865 5864 5863 5863 5863 5864 5864 5864 5864 5865 5864 5863 5865 5867 5867 5867 5868 5869 5870 5869 5869 5868 5866 5865 5866 5865 5865 5866 5866 5868 5870 5869 5871 5871 5872
5870 5869 5869 5869 5869 5869 5867 5865 5864 5865 5864 5863 5862 5861 5861 5862 5862 5862 5863 5863 5863 5862 5864 5865 5866 5867 5868 5869 5870 5870 5868 5868 5868 5867 5866 5868 5868 5867 5867 5868 5868 5869 5870 5871 5871
5868 5868 5867 5868 5869 5867 5866 5864 5863 5862 5862 5862 5861 5860 5860 5860 5860 5859 5861 5863 5862 5862 5862 5863 5864 5866 5868 5869 5869 5868 5867 5869 5869 5868 5868 5868 5870 5868 5867 5866 5868 5868 5868 5869 5870
5865 5865 5865 5866 5866 5865 5865 5863 5862 5862 5862 5862 5860 5859 5859 5859 5859 5859 5860 5860 5862 5862 5863 5865 5864 5865 5868 5868 5867 5866 5867 5868 5869 5869 5868 5869 5870 5868 5868 5868 5867 5868 5868 5867 5868
5863 5863 5863 5863 5863 5863 5861 5861 5861 5862 5860 5860 5860 5858 5858 5857 5856 5857 5858 5858 5859 5861 5861 5861 5862 5864 5866 5866 5866 5866 5866 5865 5867 5868 5868 5868 5869 5868 5867 5866 5867 5867 5866 5865 5865
5861 5860 5860 5861 5861 5860 5859 5860 5860 5859 5859 5859 5858 5858 5857 5855 5854 5854 5854 5855 5857 5858 5858 5859 5860 5860 5861 5863 5863 5864 5865 5865 5867 5868 5868 5867 5869 5868 5866 5864 5864 5865 5864 5864 5864
5858 5858 5857 5858 5858 5857 5857 5857 5856 5856 5856 5857 5856 5856 5856 5855 5854 5854 5853 5853 5854 5855 5856 5856 5858 5858 5860 5861 5862 5861 5862 5862 5862 5864 5866 5866 5868 5868 5865 5864 5864 5864 5864 5863 5862
5856 5855 5855 5854 5854 5854 5855 5853 5852 5852 5853 5855 5855 5853 5853 5853 5854 5852 5852 5852 5852 5853 5855 5854 5854 5856 5859 5859 5860 5860 5861 5863 5860 5860 5862 5864 5867 5867 5866 5865 5864 5863 5862 5863 5862
5852 5852 5852 5851 5851 5851 5851 5849 5848 5848 5850 5850 5850 5851 5849 5848 5850 5850 5850 5851 5850 5851 5850 5851 5852 5852 5855 5857 5858 5857 5859 5858 5857 5858 5858 5861 5863 5864 5865 5865 5864 5861 5861 5862 5861
5849 5849 5849 5848 5848 5847 5847 5846 5844 5844 5846 5845 5844 5844 5845 5843 5845 5845 5849 5850 5847 5847 5847 5848 5848 5850 5850 5851 5855 5855 5854 5855 5856 5855 5855 5856 5861 5861 5862 5863 5863 5862 5861 5861 5860
5846 5846 5846 5845 5846 5844 5843 5842 5841 5840 5840 5840 5839 5839 5838 5839 5839 5838 5840 5843 5843 5845 5844 5844 5844 5847 5846 5848 5847 5849 5849 5851 5851 5853 5852 5853 5856 5857 5859 5860 5862 5861 5861 5861 5860
5843 5843 5843 5843 5842 5841 5840 5839 5838 5836 5835 5835 5834 5834 5833 5832 5832 5831 5831 5834 5834 5836 5836 5838 5837 5840 5843 5843 5841 5842 5845 5846 5847 5847 5848 5850 5852 5853 5855 5855 5858 5859 5859 5860 5859
5842 5841 5840 5839 5838 5837 5836 5836 5833 5831 5829 5828 5828 5827 5826 5824 5824 5824 5824 5827 5827 5828 5828 5828 5828 5831 5834 5839 5840 5839 5840 5841 5842 5842 5844 5846 5847 5849 5851 5852 5853 5856 5856 5857 5857
5836 5836 5835 5836 5835 5833 5831 5831 5829 5825 5824 5822 5820 5819 5818 5815 5814 5814 5814 5816 5818 5818 5820 5819 5818 5820 5823 5827 5829 5831 5833 5835 5836 5837 5838 5841 5842 5845 5846 5847 5848 5852 5853 5854 5855
5832 5831 5830 5829 5828 5827 5825 5825 5823 5820 5816 5812 5811 5809 5806 5805 5805 5804 5803 5804 5806 5806 5808 5807 5807 5809 5811 5816 5818 5819 5823 5826 5828 5830 5831 5833 5836 5839 5841 5843 5843 5846 5848 5849 5851
5827 5826 5825 5824 5821 5820 5818 5815 5813 5812 5809 5805 5802 5799 5796 5794 5793 5793 5792 5793 5793 5795 5795 5795 5796 5797 5798 5804 5806 5807 5812 5817 5819 5823 5825 5825 5830 5831 5834 5837 5838 5839 5841 5843 5845